647  
NZUS99 KTBW 040316  
RWRTPA  
FLORIDA REGIONAL WEATHER ROUNDUP  
NATIONAL WEATHER SERVICE TAMPA BAY RUSKIN FL  
1000 PM EST WED MAR 03 2021  
 
NOTE: "FAIR" INDICATES FEW OR NO CLOUDS BELOW 12,000 FEET WITH NO  
SIGNIFICANT WEATHER AND/OR S TO VISIBILITY
.  
 
 
STATION/POSITION
 
 
 
FLZ042-048>051-055-056-060-061-040400-  
EXTRA STATIONS  
 
CITY SKY/WX TMP DP RH WIND PRES REMARKS
 
EVERGLADES CTY NOT AVBL  
CRYSTAL RIVER CLOUDY 55 50 82 N5 30.05S  
SEBRING FAIR 58 54 85 NW9 30.03R  
EGLIN AFB FAIR 47 43 86 CALM 30.10R  
CANAVERAL CLOUDY 59 53 82 N13G18 N/A  
 

 
FLZ001>010-012>015-040400-  
PANHANDLE FLORIDA  
 
CITY SKY/WX TMP DP RH WIND PRES REMARKS
 
PENSACOLA CLEAR 52 47 83 CALM 30.10R  
PENSACOLA NAS CLEAR 47 44 90 CALM 30.11R  
MILTON NAS CLEAR 49 44 83 NW5 30.11R WCI 47  
CRESTVIEW CLEAR 47 44 90 CALM 30.11R  
VALPARAISO CLEAR 49 46 88 W6 30.10R WCI 47  
MARY ESTHER CLEAR 53 46 77 NW6 30.09R  
PANAMA CITY FAIR 49 46 90 CALM 30.08R  
TYNDALL AFB CLEAR 52 47 85 CALM 30.09R  
APALACHICOLA CLEAR 50 49 96 CALM 30.09R  
 
STATION/POSITION
 
 

 
FLZ011-016>039-040400-  
NORTH FLORIDA  
 
CITY SKY/WX TMP DP RH WIND PRES REMARKS
 
MARIANNA CLEAR 51 47 86 SW3 30.07R  
TALLAHASSEE CLEAR 47 45 93 CALM 30.07R  
CROSS CITY MOCLDY N/A N/A N/A NE3 30.07R  
GAINESVILLE PTCLDY 51 47 86 NE3 30.07S  
MAYPORT NAS MOCLDY 53 50 89 SW6 30.05R  
JACKSONVILLE CLEAR 48 47 96 CALM 30.04R  
JAX NAS MOCLDY 52 48 86 NW5 30.06R  
JAX CRAIG CLOUDY 54 50 86 W5 30.05R  
ST AUGUSTINE CLOUDY 53 50 89 NW7 30.06S  
 
STATION/POSITION
 
 

 
FLZ040-043>046-052-053-057-058-063-040400-  
CENTRAL FLORIDA  
 
CITY SKY/WX TMP DP RH WIND PRES REMARKS
 
OCALA CLOUDY 55 51 86 N8 30.06R  
LEESBURG PTCLDY 57 51 80 N10 30.04S  
SANFORD CLOUDY 59 52 77 N7 30.02S  
ORLANDO EXEC CLOUDY 60 54 80 NE7 30.02S  
ORLANDO INTL MOCLDY 58 54 86 NE9 30.02S  
KISSIMMEE CLOUDY 60 56 86 E8 30.03S  
WINTER HAVEN CLEAR 57 52 83 NW9 30.03S  
LAKELAND CLEAR 55 50 82 NW6 30.04R  
BARTOW FAIR 59 54 82 NW8G15 30.03S  
 

 
FLZ041-047-054-059-064-040400-  
EAST CENTRAL FLORIDA  
 
CITY SKY/WX TMP DP RH WIND PRES REMARKS
 
DAYTONA BEACH CLOUDY 57 52 83 N9 30.03S  
JFK SPACE CTR CLOUDY 58 53 84 N8G17 30.02R  
PATRICK AFB CLOUDY 60 50 69 N15 30.02R  
MELBOURNE CLOUDY 61 55 81 N15 30.01R  
VERO BEACH CLOUDY 62 56 80 N15 30.01R  
FT PIERCE CLOUDY 63 56 78 N7 30.00R  
STUART MOCLDY 64 59 82 N8 30.01R  
 
STATION/POSITION
 
 

 
FLZ042-048>051-055-056-060-061-040400-  
WEST CENTRAL FLORIDA  
 
CITY SKY/WX TMP DP RH WIND PRES REMARKS
 
BROOKSVILLE CLOUDY 59 49 69 NE7 30.04S  
TAMPA PTCLDY 59 51 75 CALM 30.04R  
MACDILL AFB CLOUDY 61 53 76 N6 30.01S  
ST PETERSBURG CLOUDY 62 53 72 N8 30.04R  
ST PET-WHITTED CLOUDY 62 53 72 NW6 30.02S  
SARASOTA CLOUDY 61 52 72 N9 30.02R  
 
STATION/POSITION
 
 

 
FLZ062-065-066-069-070-075>078-040400-  
SOUTHWEST FLORIDA AND KEYS  
 
CITY SKY/WX TMP DP RH WIND PRES REMARKS
 
PUNTA GORDA PTCLDY 59 53 80 NW10 30.05R  
FT MYERS CLEAR 61 55 81 NW13 30.02R  
SOUTHWEST INTL PTCLDY 61 54 77 NW8 30.03R  
NAPLES PTCLDY 65 57 75 NW12G21 30.02R  
MARATHON CLOUDY 73 68 84 NW14G23 30.01R  
KEY WEST NAS MOCLDY 72 68 87 N18 30.03R  
KEY WEST INTL CLOUDY 74 69 85 NW14 30.04R  
 
STATION/POSITION
 
 

 
FLZ067-068-071>074-040400-  
SOUTHEAST FLORIDA  
 
CITY SKY/WX TMP DP RH WIND PRES REMARKS
 
W PALM BEACH PTCLDY 69 62 78 N7 29.98R  
POMPANO BEACH CLEAR 71 65 81 W14 29.97R  
FT LAUDER-EXEC CLEAR 70 63 78 W10G18 29.98R  
FT LAUDERDALE CLEAR 72 61 68 NW10 29.98R  
PEMBROKE PINES CLEAR 71 61 70 W14 29.99R  
OPA LOCKA CLEAR 71 62 73 W13 29.98R  
MIAMI CLEAR 71 63 75 W9 29.98R  
WEST KENDALL CLEAR 70 63 78 W13 29.99R  
HOMESTEAD CLEAR 70 64 83 W14 29.98R  
 
STATION/POSITION
 
 

 
 
 
CLICK HERE TO GO TO PREVIOUS BULLETINS.

The Nexlab FL Page Main Text Page